Location: Castellare
(42.4669°N, 9.4728°E)
Time: 20:08:21
(UTC+00:00)

SL-08 R/B - Pass Details

Date: 17 February 2020
Orbit: 943 x 1009 km, 83.0° (Epoch: 07 April)

Event Time Altitude Azimuth Distance (km) Brightness Sun altitude
Rises 05:38:58 0° 350° (N) 3,661 7.3 -7.7°
Reaches altitude 10° 05:41:30 10° 348° (NNW) 2,701 6.6 -7.2°
Maximum altitude 05:47:37 70° 266° (W) 1,011 4.5 -6.1°
Drops below altitude 10° 05:53:38 10° 184° (S) 2,655 6.9 -5.0°
Sets 05:56:06 0° 182° (S) 3,594 7.6 -4.6°
